Cordova, SC

11:59 PM EST on February 06, 2016 (GMT -0500)
Orangeburg Municipal

Weather History for KOGB - January, 2012

Change the Weather History Date:

Monday, January 2, 2012

  Actual Average Record
Temperature  
Mean Temperature 47 °F 45 °F  
Max Temperature 58 °F 56 °F 76 °F (1985)
Min Temperature 36 °F 35 °F 22 °F (1963)
Degree Days  
Heating Degree Days 18 20  
Month to date heating degree days 30 40  
Since 1 July heating degree days 810 944  
Cooling Degree Days 0 0  
Month to date cooling degree days 0 0  
Year to date cooling degree days 0 0  
Moisture  
Dew Point 20 °F    
Average Humidity 40    
Maximum Humidity 67    
Minimum Humidity 21    
Precipitation  
Precipitation 0.00 in 0.12 in 1.44 in (1979)
Month to date precipitation T 0.24  
Year to date precipitation T 0.24  
Sea Level Pressure  
Sea Level Pressure 30.06 in    
Wind  
Wind Speed 10 mph (WNW)    
Max Wind Speed 22 mph    
Max Gust Speed 31 mph    
Visibility 10 miles    
Events      
T = Trace of Precipitation, MM = Missing Value Source: NWS Daily Summary

Daily Weather History Graph

Daily Weather History Graph

Search for Another Location

Airport or City:

Trip Planner

Search our weather history database for the weather conditions in past years. The results will help you decide how hot, cold, wet, or windy it might be!

Date:

Astronomy

Jan. 02, 2012 Rise Set
Actual Time 7:27 AM EST 5:27 PM EST
Civil Twilight 7:00 AM EST 5:54 PM EST
Nautical Twilight 6:29 AM EST 6:25 PM EST
Astronomical Twilight 5:59 AM EST 6:55 PM EST
Moon 12:35 PM EST (1/2) 1:27 AM EST (1/2)
Length of Visible Light 10h 54m
Length of Day
9h 59m
Waxing Gibbous, 63% of the Moon is Illuminated
Jan 2
Waxing Gibbous
Jan 9
Full
Jan 16
Last Quarter
Jan 23
New
Jan 30
First Quarter

Hourly Weather History & Observations

Time (EST) Temp. Windchill Dew Point Humidity Pressure Visibility Wind Dir Wind Speed Gust Speed Precip Events Conditions
2:53 AM 50.0 °F - 34.0 °F 54% 30.06 in 10.0 mi WNW 12.7 mph 18.4 mph N/A   Clear
3:53 AM 48.0 °F - 32.0 °F 54% 30.08 in 10.0 mi WNW 6.9 mph - N/A   Clear
4:53 AM 45.0 °F 42.6 °F 32.0 °F 60% 30.08 in 10.0 mi WNW 4.6 mph - N/A   Clear
5:53 AM 43.0 °F 39.5 °F 30.9 °F 62% 30.09 in 10.0 mi WNW 5.8 mph - N/A   Clear
6:53 AM 41.0 °F 37.1 °F 30.0 °F 65% 30.10 in 10.0 mi West 5.8 mph - N/A   Clear
7:53 AM 42.1 °F 36.6 °F 28.0 °F 58% 30.12 in 10.0 mi WNW 9.2 mph - N/A   Clear
8:53 AM 43.0 °F 37.7 °F 27.0 °F 53% 30.13 in 10.0 mi NW 9.2 mph - N/A   Clear
9:53 AM 46.0 °F 39.9 °F 25.0 °F 44% 30.14 in 10.0 mi WNW 13.8 mph - N/A   Clear
11:53 AM 51.1 °F - 21.0 °F 31% 30.09 in 10.0 mi West 8.1 mph 18.4 mph N/A   Clear
12:53 PM 52.0 °F - 17.1 °F 25% 30.04 in 10.0 mi West 18.4 mph 23.0 mph N/A   Clear
2:53 PM 52.0 °F - 12.0 °F 20% 30.01 in 10.0 mi West 13.8 mph 24.2 mph N/A   Clear
3:53 PM 51.1 °F - 12.0 °F 21% 30.00 in 10.0 mi West 12.7 mph 25.3 mph N/A   Clear
4:53 PM 50.0 °F - 12.9 °F 23% 30.00 in 10.0 mi West 11.5 mph 24.2 mph N/A   Clear
5:53 PM 46.0 °F 42.5 °F 14.0 °F 28% 30.01 in 10.0 mi West 6.9 mph - N/A   Clear
6:53 PM 43.0 °F 38.8 °F 15.1 °F 32% 30.02 in 10.0 mi West 6.9 mph - N/A   Clear
7:53 PM 43.0 °F 38.8 °F 14.0 °F 31% 30.03 in 10.0 mi WNW 6.9 mph - N/A   Clear
8:53 PM 42.1 °F 35.7 °F 12.0 °F 29% 30.04 in 10.0 mi NW 11.5 mph - N/A   Clear
9:53 PM 41.0 °F 33.9 °F 10.0 °F 28% 30.06 in 10.0 mi NW 12.7 mph - N/A   Clear
10:53 PM 39.0 °F 32.8 °F 12.0 °F 33% 30.08 in 10.0 mi NNW 9.2 mph 21.9 mph N/A   Overcast
11:53 PM 36.0 °F 27.1 °F 12.9 °F 39% 30.11 in 10.0 mi NNW 13.8 mph 24.2 mph N/A   Mostly Cloudy